Location: Clatteringshaws Loch
(55.0508°N, 4.2860°W)
Time: 11:21:20
(UTC+01:00)

ALOS - Visible Passes

Search period start: 21 October 2014 00:00
Search period end: 30 October 2014 23:00
Orbit: 687 x 690 km, 98.0° (Epoch: 19 October)

Date Brightness Start Highest point End Pass type
(mag) Time Alt. Az. Time Alt. Az. Time Alt. Az.
21 Oct 4.0 19:58:20 16° NE 19:58:20 16° NE 20:00:47 10° NNE visible
21 Oct 3.7 21:36:56 31° N 21:36:56 31° N 21:39:23 10° NNW visible
21 Oct 5.3 23:15:32 12° NW 23:15:32 12° NW 23:16:03 10° NW visible
22 Oct 3.7 20:37:24 24° NNE 20:37:24 24° NNE 20:39:59 10° N visible
22 Oct 4.4 22:16:00 23° NNW 22:16:00 23° NNW 22:17:52 10° NNW visible
23 Oct 4.3 19:37:52 12° NE 19:37:52 12° NE 19:39:35 10° NNE visible
23 Oct 3.7 21:16:28 28° N 21:16:28 28° N 21:18:49 10° N visible
23 Oct 5.1 22:55:04 15° NW 22:55:04 15° NW 22:56:00 10° NW visible
24 Oct 3.9 20:16:56 19° NNE 20:16:56 19° NNE 20:19:11 10° N visible
24 Oct 4.2 21:55:32 24° NNW 21:55:32 24° NNW 21:57:26 10° NNW visible
25 Oct 3.8 20:55:59 24° NNE 20:55:59 24° NNE 20:58:11 10° N visible
25 Oct 4.9 22:34:36 17° NW 22:34:36 17° NW 22:35:45 10° NNW visible
26 Oct 4.2 18:56:26 15° NE 18:56:26 15° NE 18:58:14 10° NNE visible
26 Oct 4.1 20:35:03 24° N 20:35:03 24° N 20:36:54 10° NNW visible
27 Oct 4.0 19:35:30 20° NNE 19:35:30 20° NNE 19:37:27 10° N visible
27 Oct 4.7 21:14:06 18° NNW 21:14:06 18° NNW 21:15:23 10° NNW visible
28 Oct 4.4 18:35:56 12° NE 18:35:56 12° NE 18:36:58 10° NNE visible
28 Oct 4.1 20:14:32 22° N 20:14:32 22° N 20:16:18 10° N visible
28 Oct 5.3 21:53:08 12° NW 21:53:08 12° NW 21:53:32 10° NW visible
29 Oct 4.2 19:14:59 17° NNE 19:14:59 17° NNE 19:16:37 10° N visible
29 Oct 4.6 20:53:35 19° NNW 20:53:35 19° NNW 20:54:54 10° NNW visible
30 Oct 4.2 19:54:01 20° N 19:54:01 20° N 19:55:37 10° N visible
30 Oct 5.1 21:32:37 13° NNW 21:32:37 13° NNW 21:33:14 10° NNW visible
